Coldwater, MI

10:33 AM EDT on August 26, 2016 (GMT -0400)
Branch County Memorial

Weather History for KOEB - October, 2011

Change the Weather History Date:

Thursday, October 13, 2011

  Actual Average (KJYM) Record (KJYM)
Temperature  
Mean Temperature 56 °F -  
Max Temperature 62 °F 62 °F 80 °F (1956)
Min Temperature 50 °F 38 °F 25 °F (1988)
Degree Days  
Heating Degree Days 9    
Growing Degree Days 6 (Base 50)    
Moisture  
Dew Point 53 °F    
Average Humidity 94    
Maximum Humidity 100    
Minimum Humidity 77    
Precipitation  
Precipitation 0.00 in - - ()
Sea Level Pressure  
Sea Level Pressure 29.61 in    
Wind  
Wind Speed 3 mph (SE)    
Max Wind Speed 9 mph    
Max Gust Speed -    
Visibility 2 miles    
Events Fog , Rain    
Averages and records for this station are not official NWS values.
T = Trace of Precipitation, MM = Missing Value Source: NWS Daily Summary

Daily Weather History Graph

Daily Weather History Graph

Search for Another Location

Airport or City:

Trip Planner

Search our weather history database for the weather conditions in past years. The results will help you decide how hot, cold, wet, or windy it might be!

Date:

Astronomy

Oct. 13, 2011 Rise Set
Actual Time 7:50 AM EDT 7:02 PM EDT
Civil Twilight 7:21 AM EDT 7:30 PM EDT
Nautical Twilight 6:49 AM EDT 8:02 PM EDT
Astronomical Twilight 6:17 AM EDT 8:34 PM EDT
Moon 7:34 PM EDT (10/13) 9:23 AM EDT (10/13)
Length of Visible Light 12h 08m
Length of Day
11h 12m
Full, 98% of the Moon is Illuminated
Oct 13
Full
Oct 19
Last Quarter
Oct 26
New
Nov 2
First Quarter
Nov 10
Full

Hourly Weather History & Observations

Time (EDT) Temp. Dew Point Humidity Pressure Visibility Wind Dir Wind Speed Gust Speed Precip Events Conditions
12:15 AM 50.0 °F 50.0 °F 100% 29.73 in 3.0 mi Calm Calm - N/A   Clear
12:34 AM 50.0 °F 50.0 °F 100% 29.73 in 1.2 mi Calm Calm - N/A   Mist
12:54 AM 51.8 °F 50.0 °F 94% 29.72 in 1.8 mi Calm Calm - N/A   Mist
1:15 AM 50.0 °F 48.2 °F 94% 29.72 in 1.5 mi Calm Calm - N/A   Mist
1:34 AM 50.0 °F 48.2 °F 94% 29.71 in 1.5 mi Calm Calm - N/A   Mist
1:54 AM 50.0 °F 48.2 °F 94% 29.71 in 0.2 mi Calm Calm - N/A Fog Fog
2:15 AM 50.0 °F 48.2 °F 94% 29.70 in 1.2 mi Calm Calm - N/A   Scattered Clouds
2:34 AM 50.0 °F 50.0 °F 100% 29.70 in 0.5 mi ESE 3.5 mph - N/A Fog Fog
2:54 AM 50.0 °F 50.0 °F 100% 29.70 in 0.2 mi SE 3.5 mph - N/A Fog Fog
3:14 AM 50.0 °F 50.0 °F 100% 29.70 in 0.2 mi Calm Calm - N/A Fog Fog
3:34 AM 50.0 °F 50.0 °F 100% 29.68 in 0.2 mi SE 4.6 mph - N/A Fog Fog
3:55 AM 50.0 °F 50.0 °F 100% 29.68 in 0.2 mi ESE 4.6 mph - N/A Fog Fog
4:14 AM 50.0 °F 50.0 °F 100% 29.67 in 0.2 mi ESE 4.6 mph - N/A Fog Fog
4:34 AM 51.8 °F 50.0 °F 94% 29.67 in 0.2 mi ESE 4.6 mph - N/A Fog Fog
4:55 AM 51.8 °F 50.0 °F 94% 29.67 in 0.2 mi SE 3.5 mph - N/A Fog Fog
5:14 AM 51.8 °F 51.8 °F 100% 29.66 in 0.2 mi SE 4.6 mph - N/A Fog Fog
5:35 AM 51.8 °F 51.8 °F 100% 29.66 in 0.2 mi SE 4.6 mph - N/A Fog Fog
6:14 AM 51.8 °F 51.8 °F 100% 29.65 in 0.2 mi SSE 3.5 mph - N/A Fog Fog
6:35 AM 51.8 °F 51.8 °F 100% 29.65 in 0.2 mi SE 4.6 mph - N/A Fog Fog
6:54 AM 51.8 °F 51.8 °F 100% 29.65 in 0.2 mi SE 3.5 mph - N/A Fog Fog
7:14 AM 51.8 °F 51.8 °F 100% 29.65 in 0.2 mi ESE 3.5 mph - N/A Fog Fog
7:54 AM 51.8 °F 51.8 °F 100% 29.64 in 0.2 mi ESE 4.6 mph - N/A Fog Fog
8:15 AM 51.8 °F 51.8 °F 100% 29.64 in 0.2 mi Calm Calm - N/A Fog Fog
8:34 AM 51.8 °F 51.8 °F 100% 29.64 in 0.2 mi East 3.5 mph - N/A Fog Fog
8:54 AM 51.8 °F 51.8 °F 100% 29.64 in 0.2 mi ESE 4.6 mph - N/A Fog Fog
9:34 AM 51.8 °F 51.8 °F 100% 29.64 in 0.2 mi SSE 8.1 mph - N/A Fog Fog
9:54 AM 53.6 °F 51.8 °F 94% 29.63 in 0.2 mi SE 5.8 mph - N/A Fog Fog
10:15 AM 53.6 °F 53.6 °F 100% 29.62 in 0.5 mi ESE 4.6 mph - N/A Fog Fog
10:34 AM 53.6 °F 53.6 °F 100% 29.62 in 1.0 mi ESE 3.5 mph - N/A   Overcast
10:54 AM 53.6 °F 53.6 °F 100% 29.61 in 1.0 mi ESE 5.8 mph - N/A   Overcast
11:15 AM 53.6 °F 53.6 °F 100% 29.61 in 1.2 mi ESE 6.9 mph - N/A   Overcast
11:34 AM 53.6 °F 53.6 °F 100% 29.61 in 1.8 mi ESE 4.6 mph - N/A   Overcast
11:54 AM 55.4 °F 53.6 °F 94% 29.60 in 1.8 mi SE 3.5 mph - N/A   Overcast
12:15 PM 55.4 °F 53.6 °F 94% 29.61 in 1.8 mi SE 5.8 mph - N/A   Overcast
12:34 PM 55.4 °F 53.6 °F 94% 29.60 in 2.5 mi SE 5.8 mph - N/A   Overcast
12:54 PM 55.4 °F 53.6 °F 94% 29.59 in 2.5 mi SE 6.9 mph - N/A   Overcast
1:14 PM 57.2 °F 55.4 °F 94% 29.58 in 2.5 mi ESE 8.1 mph - N/A   Overcast
1:34 PM 59.0 °F 55.4 °F 88% 29.57 in 3.0 mi ESE 5.8 mph - N/A   Overcast
1:55 PM 59.0 °F 55.4 °F 88% 29.56 in 3.0 mi ESE 9.2 mph - N/A   Overcast
2:14 PM 60.8 °F 55.4 °F 82% 29.55 in 5.0 mi ESE 6.9 mph - N/A   Haze
2:34 PM 60.8 °F 55.4 °F 82% 29.54 in 5.0 mi SE 5.8 mph - N/A   Haze
3:14 PM 60.8 °F 55.4 °F 82% 29.52 in 5.0 mi SE 6.9 mph - N/A   Haze
3:35 PM 60.8 °F 55.4 °F 82% 29.52 in 5.0 mi SSE 8.1 mph - N/A   Haze
3:54 PM 62.6 °F 55.4 °F 77% 29.52 in 5.0 mi SSE 5.8 mph - N/A   Haze
4:14 PM 60.8 °F 55.4 °F 82% 29.50 in 5.0 mi SE 3.5 mph - N/A   Haze
4:35 PM 60.8 °F 55.4 °F 82% 29.49 in 5.0 mi South 3.5 mph - N/A   Haze
4:55 PM 60.8 °F 55.4 °F 82% 29.49 in 5.0 mi Calm Calm - N/A   Haze
5:14 PM 62.6 °F 55.4 °F 77% 29.49 in 5.0 mi South 3.5 mph - N/A   Haze
5:35 PM 60.8 °F 55.4 °F 82% 29.48 in 5.0 mi SSE 4.6 mph - N/A   Haze
5:54 PM 60.8 °F 55.4 °F 82% 29.47 in 5.0 mi Calm Calm - N/A   Light Drizzle
6:14 PM 60.8 °F 57.2 °F 88% 29.47 in 3.0 mi Calm Calm - N/A Rain Rain
6:34 PM 59.0 °F 57.2 °F 94% 29.47 in 2.5 mi Calm Calm - N/A Rain Rain
6:54 PM 59.0 °F 57.2 °F 94% 29.46 in 1.0 mi Calm Calm - N/A Rain Light Rain
7:14 PM 59.0 °F 57.2 °F 94% 29.46 in 1.8 mi Calm Calm - N/A Rain Light Rain
7:35 PM 59.0 °F 57.2 °F 94% 29.45 in 2.0 mi Calm Calm - N/A Rain Light Rain
7:54 PM 59.0 °F 57.2 °F 94% 29.45 in 2.0 mi South 3.5 mph - N/A Rain Light Rain
8:15 PM 59.0 °F 55.4 °F 88% 29.44 in 5.0 mi South 3.5 mph - N/A Rain Light Rain
8:34 PM 59.0 °F 55.4 °F 88% 29.44 in 5.0 mi Calm Calm - N/A   Overcast
8:55 PM 59.0 °F 55.4 °F 88% 29.44 in 5.0 mi SSE 4.6 mph - N/A   Overcast
9:15 PM 59.0 °F 55.4 °F 88% 29.43 in 5.0 mi South 4.6 mph - N/A Rain Rain
9:34 PM 59.0 °F 55.4 °F 88% 29.43 in 5.0 mi South 5.8 mph - N/A   Drizzle
10:14 PM 59.0 °F 55.4 °F 88% 29.42 in 5.0 mi SSW 4.6 mph - N/A Rain Rain
10:34 PM 57.2 °F 55.4 °F 94% 29.42 in 4.0 mi SW 8.1 mph - N/A   Drizzle
10:55 PM 57.2 °F 55.4 °F 94% 29.42 in 7.0 mi WSW 8.1 mph - N/A Rain Light Rain
11:14 PM 57.2 °F 55.4 °F 94% 29.41 in 4.0 mi WSW 5.8 mph - N/A Rain Rain
11:34 PM 55.4 °F 55.4 °F 100% 29.41 in 3.0 mi WNW 15.0 mph 23.0 mph N/A Rain Heavy Rain
11:55 PM 55.4 °F 53.6 °F 94% 29.42 in 7.0 mi WNW 17.3 mph 23.0 mph N/A Rain Light Rain